This is the latest recevied weather packets stored in our database for station/object K5BOU. If no packets are shown the sender has not sent any weather packets the latest 10 day(s).
| Time | Temp. | Humidity | Pressure | Rain* | Wind** | Luminosity | Snow |
|---|---|---|---|---|---|---|---|
| 1777417672 | 30° C | 80% | 1008.6 hPa | 0 mm | - | 182 W/m² | - |
| 1777417368 | 30° C | 79% | 1008.6 hPa | 0 mm | - | 225 W/m² | - |
| 1777417065 | 30° C | 78% | 1008.3 hPa | 0 mm | - | 274 W/m² | - |
| 1777416761 | 30° C | 78% | 1008.5 hPa | 0 mm | - | 269 W/m² | - |
| 1777416456 | 30° C | 77% | 1008.2 hPa | 0 mm | - | 225 W/m² | - |
| 1777416152 | 30° C | 77% | 1008.3 hPa | 0 mm | - | 191 W/m² | - |
| 1777415846 | 30.56° C | 76% | 1008.4 hPa | 0 mm | - | 212 W/m² | - |
| 1777415541 | 30.56° C | 75% | 1008.3 hPa | 0 mm | - | 206 W/m² | - |
| 1777415238 | 31.11° C | 75% | 1008.5 hPa | 0 mm | - | 281 W/m² | - |
| 1777414933 | 31.11° C | 74% | 1008.3 hPa | 0 mm | - | 300 W/m² | - |
| 1777414633 | 31.11° C | 74% | 1008.2 hPa | 0 mm | - | 330 W/m² | - |
| 1777414328 | 31.11° C | 73% | 1008.6 hPa | 0 mm | - | 372 W/m² | - |
| 1777414023 | 31.67° C | 73% | 1008.6 hPa | 0 mm | - | 396 W/m² | - |
| 1777413717 | 31.67° C | 74% | 1008.7 hPa | 0 mm | - | 396 W/m² | - |
| 1777413414 | 31.67° C | 73% | 1008.9 hPa | 0 mm | - | 344 W/m² | - |
| 1777413110 | 31.67° C | 73% | 1008.8 hPa | 0 mm | - | 448 W/m² | - |
| 1777412804 | 31.67° C | 72% | 1009.2 hPa | 0 mm | - | 453 W/m² | - |
| 1777412499 | 31.67° C | 72% | 1009.1 hPa | 0 mm | - | 471 W/m² | - |
| 1777412196 | 31.67° C | 72% | 1009.4 hPa | 0 mm | - | 502 W/m² | - |
| 1777411892 | 32.22° C | 71% | 1009.5 hPa | 0 mm | - | 509 W/m² | - |
| 1777411591 | 31.67° C | 73% | 1009.5 hPa | 0 mm | - | 563 W/m² | - |
| 1777411287 | 31.67° C | 71% | 1009.6 hPa | 0 mm | - | 544 W/m² | - |
| 1777410986 | 31.67° C | 72% | 1009.7 hPa | 0 mm | - | 521 W/m² | - |
| 1777410680 | 32.22° C | 73% | 1009.5 hPa | 0 mm | - | 586 W/m² | - |
| 1777410376 | 31.67° C | 73% | 1009.5 hPa | 0 mm | - | 593 W/m² | - |
* Rain latest hour (hover to see other rain measurements)
** Current wind speed in m/s (hover to see current wind gust speed)